Location: Bottom School (historical)
(37.9078°N, 89.3593°W)
Time: 09:05:16
(UTC+00:00)

Cosmos 1570 Rocket - Pass Details

Date: 08 July 2022
Orbit: 762 x 788 km, 74.1° (Epoch: 14 August)

Event Time Altitude Azimuth Distance (km) Brightness Sun altitude
Exits shadow 08:50:40 17° 272° (W) 1,881 5.7 -17.9°
Maximum altitude 08:52:36 20° 300° (WNW) 1,715 5.7 -17.6°
Drops below altitude 10° 08:56:26 10° 347° (NNW) 2,317 7.0 -17.1°
Sets 08:59:27 0° 4° (N) 3,253 8.1 -16.7°
